Location: Gälforsberget
(66.6500°N, 22.4167°E)
Time: 21:35:46
(UTC+00:00)

USA 234 - Pass Details

Date: 11 April 2026
Orbit: 1102 x 1106 km, 123.0° (Epoch: 4 January)

Event Time Altitude Azimuth Distance (km) Brightness Sun altitude
Rises 22:50:16 0° 130° (SE) 3,918 5.8 -14.7°
Reaches altitude 10° 22:53:04 10° 140° (SE) 2,962 5.1 -14.6°
Maximum altitude 22:58:51 32° 202° (SSW) 1,788 3.9 -14.6°
Drops below altitude 10° 23:04:38 10° 264° (W) 2,969 5.4 -14.5°
Sets 23:07:26 0° 275° (W) 3,929 6.1 -14.5°
